Time,TemperatureF,DewpointF,PressureIn,WindDirection,WindDirectionDegrees,WindSpeedMPH,WindSpeedGustMPH,Humidity,HourlyPrecipIn,Conditions,Clouds,dailyrainin,SolarRadiationWatts/m^2,SoftwareType,DateUTC
2013-03-18 00:03:00,42.0,41.0,-100.00,SW,217,1.0,4.0,95,0.00,,,0.08,0.000000,,2013-03-18 04:03:00,
2013-03-18 00:11:00,45.0,43.0,-100.00,NW,306,5.0,12.0,92,0.00,,,0.08,0.000000,,2013-03-18 04:11:00,
2013-03-18 00:42:00,45.0,43.0,-100.00,NW,306,5.0,12.0,92,0.00,,,0.08,0.000000,,2013-03-18 04:42:00,
2013-03-18 00:53:00,45.0,43.0,-100.00,NW,306,5.0,12.0,92,0.00,,,0.08,0.000000,,2013-03-18 04:53:00,
2013-03-18 01:03:00,45.0,43.0,-100.00,NW,306,5.0,12.0,92,0.00,,,0.08,0.000000,,2013-03-18 05:03:00,
2013-03-18 01:11:00,46.0,43.0,-100.00,NW,305,7.0,12.0,90,0.00,,,0.08,0.000000,,2013-03-18 05:11:00,
2013-03-18 01:43:00,46.0,43.0,-100.00,NW,305,7.0,12.0,90,0.00,,,0.08,0.000000,,2013-03-18 05:43:00,
2013-03-18 01:52:00,46.0,43.0,-100.00,NW,305,7.0,12.0,90,0.00,,,0.08,0.000000,,2013-03-18 05:52:00,
2013-03-18 02:02:00,46.0,43.0,-100.00,NW,305,7.0,12.0,90,0.00,,,0.08,0.000000,,2013-03-18 06:02:00,
2013-03-18 02:11:00,45.0,41.0,-100.00,NW,312,7.0,15.0,87,0.00,,,0.08,0.000000,,2013-03-18 06:11:00,
2013-03-18 02:42:00,45.0,41.0,-100.00,NW,312,7.0,15.0,87,0.00,,,0.08,0.000000,,2013-03-18 06:42:00,
2013-03-18 02:53:00,45.0,41.0,-100.00,NW,312,7.0,15.0,87,0.00,,,0.08,0.000000,,2013-03-18 06:53:00,
2013-03-18 03:02:00,45.0,41.0,-100.00,NW,312,7.0,15.0,87,0.00,,,0.08,0.000000,,2013-03-18 07:02:00,
2013-03-18 03:11:00,44.0,40.0,-100.00,NW,318,4.0,15.0,85,0.00,,,0.08,0.000000,,2013-03-18 07:11:00,
2013-03-18 03:43:00,44.0,40.0,-100.00,NW,318,4.0,15.0,85,0.00,,,0.08,0.000000,,2013-03-18 07:43:00,
2013-03-18 03:53:00,44.0,40.0,-100.00,NW,318,4.0,15.0,85,0.00,,,0.08,0.000000,,2013-03-18 07:53:00,
2013-03-18 04:02:00,44.0,40.0,-100.00,NW,318,4.0,15.0,85,0.00,,,0.08,0.000000,,2013-03-18 08:02:00,
2013-03-18 04:11:00,44.0,40.0,-100.00,West,277,4.0,11.0,87,0.00,,,0.08,0.000000,,2013-03-18 08:11:00,
2013-03-18 04:32:00,44.0,40.0,-100.00,West,277,4.0,11.0,87,0.00,,,0.08,0.000000,,2013-03-18 08:32:00,
2013-03-18 04:43:00,44.0,40.0,-100.00,West,277,4.0,11.0,87,0.00,,,0.08,0.000000,,2013-03-18 08:43:00,
2013-03-18 04:53:00,44.0,40.0,-100.00,West,277,4.0,11.0,87,0.00,,,0.08,0.000000,,2013-03-18 08:53:00,
2013-03-18 05:02:00,44.0,40.0,-100.00,West,277,4.0,11.0,87,0.00,,,0.08,0.000000,,2013-03-18 09:02:00,
2013-03-18 05:11:00,43.0,39.0,-100.00,NW,316,7.0,16.0,87,0.00,,,0.06,0.000000,,2013-03-18 09:11:00,
2013-03-18 05:33:00,43.0,39.0,-100.00,NW,316,7.0,16.0,87,0.00,,,0.06,0.000000,,2013-03-18 09:33:00,
2013-03-18 05:43:00,43.0,39.0,-100.00,NW,316,7.0,16.0,87,0.00,,,0.06,0.000000,,2013-03-18 09:43:00,
2013-03-18 05:53:00,43.0,39.0,-100.00,NW,316,7.0,16.0,87,0.00,,,0.06,0.000000,,2013-03-18 09:53:00,
2013-03-18 06:04:00,43.0,39.0,-100.00,NW,316,7.0,16.0,87,0.00,,,0.06,0.000000,,2013-03-18 10:04:00,
2013-03-18 06:11:00,42.0,38.0,-100.00,NW,304,6.0,13.0,87,0.00,,,0.05,0.000000,,2013-03-18 10:11:00,
2013-03-18 06:33:00,42.0,38.0,-100.00,NW,304,6.0,13.0,87,0.00,,,0.05,0.000000,,2013-03-18 10:33:00,
2013-03-18 06:42:00,42.0,38.0,-100.00,NW,304,6.0,13.0,87,0.00,,,0.05,0.000000,,2013-03-18 10:42:00,
2013-03-18 06:53:00,42.0,38.0,-100.00,NW,304,6.0,13.0,87,0.00,,,0.05,0.000000,,2013-03-18 10:53:00,
2013-03-18 07:03:00,42.0,38.0,-100.00,NW,304,6.0,13.0,87,0.00,,,0.05,0.000000,,2013-03-18 11:03:00,
2013-03-18 07:11:00,41.0,37.0,-100.00,WNW,297,8.0,18.0,86,0.00,,,0.01,0.000000,,2013-03-18 11:11:00,
2013-03-18 07:32:00,41.0,37.0,-100.00,WNW,297,8.0,18.0,86,0.00,,,0.01,0.000000,,2013-03-18 11:32:00,
2013-03-18 07:43:00,41.0,37.0,-100.00,WNW,297,8.0,18.0,86,0.00,,,0.01,0.000000,,2013-03-18 11:43:00,
2013-03-18 07:53:00,41.0,37.0,-100.00,WNW,297,8.0,18.0,86,0.00,,,0.01,0.000000,,2013-03-18 11:53:00,
2013-03-18 08:03:00,41.0,37.0,-100.00,WNW,297,8.0,18.0,86,0.00,,,0.01,0.000000,,2013-03-18 12:03:00,
2013-03-18 08:11:00,42.0,38.0,-100.00,WNW,295,6.0,18.0,85,0.00,,,0.00,18.000000,,2013-03-18 12:11:00,
2013-03-18 08:43:00,42.0,38.0,-100.00,WNW,295,6.0,18.0,85,0.00,,,0.00,18.000000,,2013-03-18 12:43:00,
2013-03-18 08:52:00,42.0,38.0,-100.00,WNW,295,6.0,18.0,85,0.00,,,0.00,18.000000,,2013-03-18 12:52:00,
2013-03-18 09:03:00,42.0,38.0,-100.00,WNW,295,6.0,18.0,85,0.00,,,0.00,18.000000,,2013-03-18 13:03:00,
2013-03-18 09:11:00,44.0,39.0,-100.00,WNW,287,8.0,17.0,81,0.00,,,0.00,54.000000,,2013-03-18 13:11:00,
2013-03-18 09:43:00,44.0,39.0,-100.00,WNW,287,8.0,17.0,81,0.00,,,0.00,54.000000,,2013-03-18 13:43:00,
2013-03-18 09:52:00,44.0,39.0,-100.00,WNW,287,8.0,17.0,81,0.00,,,0.00,54.000000,,2013-03-18 13:52:00,
2013-03-18 10:03:00,44.0,39.0,-100.00,WNW,287,8.0,17.0,81,0.00,,,0.00,54.000000,,2013-03-18 14:03:00,
2013-03-18 10:11:00,46.0,41.0,-100.00,WNW,296,7.0,19.0,84,0.03,,,0.03,127.000000,,2013-03-18 14:11:00,
2013-03-18 10:42:00,46.0,41.0,-100.00,WNW,296,7.0,19.0,84,0.03,,,0.03,127.000000,,2013-03-18 14:42:00,
2013-03-18 10:52:00,46.0,41.0,-100.00,WNW,296,7.0,19.0,84,0.03,,,0.03,127.000000,,2013-03-18 14:52:00,
2013-03-18 11:02:00,46.0,41.0,-100.00,WNW,296,7.0,19.0,84,0.03,,,0.03,127.000000,,2013-03-18 15:02:00,
2013-03-18 11:11:00,53.0,45.0,-100.00,WNW,302,10.0,23.0,73,0.00,,,0.03,474.000000,,2013-03-18 15:11:00,
2013-03-18 11:33:00,53.0,45.0,-100.00,WNW,302,10.0,23.0,73,0.00,,,0.03,474.000000,,2013-03-18 15:33:00,
2013-03-18 11:43:00,53.0,45.0,-100.00,WNW,302,10.0,23.0,73,0.00,,,0.03,474.000000,,2013-03-18 15:43:00,
2013-03-18 11:52:00,53.0,45.0,-100.00,WNW,302,10.0,23.0,73,0.00,,,0.03,474.000000,,2013-03-18 15:52:00,
2013-03-18 12:03:00,53.0,45.0,-100.00,WNW,302,10.0,23.0,73,0.00,,,0.03,474.000000,,2013-03-18 16:03:00,
2013-03-18 12:11:00,51.0,42.0,-100.00,WNW,303,6.0,17.0,71,0.00,,,0.03,251.000000,,2013-03-18 16:11:00,
2013-03-18 12:42:00,51.0,42.0,-100.00,WNW,303,6.0,17.0,71,0.00,,,0.03,251.000000,,2013-03-18 16:42:00,
2013-03-18 12:53:00,51.0,42.0,-100.00,WNW,303,6.0,17.0,71,0.00,,,0.03,251.000000,,2013-03-18 16:53:00,
2013-03-18 13:03:00,51.0,42.0,-100.00,WNW,303,6.0,17.0,71,0.00,,,0.03,251.000000,,2013-03-18 17:03:00,
2013-03-18 13:11:00,49.0,46.0,-100.00,WNW,298,4.0,10.0,89,0.10,,,0.13,118.000000,,2013-03-18 17:11:00,
2013-03-18 13:43:00,49.0,46.0,-100.00,WNW,298,4.0,10.0,89,0.10,,,0.13,118.000000,,2013-03-18 17:43:00,
2013-03-18 13:52:00,49.0,46.0,-100.00,WNW,298,4.0,10.0,89,0.10,,,0.13,118.000000,,2013-03-18 17:52:00,
2013-03-18 14:02:00,49.0,46.0,-100.00,WNW,298,4.0,10.0,89,0.10,,,0.13,118.000000,,2013-03-18 18:02:00,
2013-03-18 14:11:00,48.0,46.0,-100.00,West,262,1.0,11.0,94,0.27,,,0.40,28.000000,,2013-03-18 18:11:00,
2013-03-18 14:42:00,48.0,46.0,-100.00,West,262,1.0,11.0,94,0.27,,,0.40,28.000000,,2013-03-18 18:42:00,
2013-03-18 14:52:00,48.0,46.0,-100.00,West,262,1.0,11.0,94,0.27,,,0.40,28.000000,,2013-03-18 18:52:00,
2013-03-18 15:03:00,48.0,46.0,-100.00,West,262,1.0,11.0,94,0.27,,,0.40,28.000000,,2013-03-18 19:03:00,
2013-03-18 15:11:00,49.0,48.0,-100.00,NE,37,2.0,6.0,97,0.24,,,0.64,46.000000,,2013-03-18 19:11:00,
2013-03-18 15:33:00,49.0,48.0,-100.00,NE,37,2.0,6.0,97,0.24,,,0.64,46.000000,,2013-03-18 19:33:00,
2013-03-18 15:42:00,49.0,48.0,-100.00,NE,37,2.0,6.0,97,0.24,,,0.64,46.000000,,2013-03-18 19:42:00,
2013-03-18 15:52:00,49.0,48.0,-100.00,NE,37,2.0,6.0,97,0.24,,,0.64,46.000000,,2013-03-18 19:52:00,
2013-03-18 16:03:00,49.0,48.0,-100.00,NE,37,2.0,6.0,97,0.24,,,0.64,46.000000,,2013-03-18 20:03:00,
2013-03-18 16:11:00,49.0,48.0,-100.00,ENE,65,2.0,5.0,98,0.16,,,0.80,50.000000,,2013-03-18 20:11:00,
2013-03-18 16:43:00,49.0,48.0,-100.00,ENE,65,2.0,5.0,98,0.16,,,0.80,50.000000,,2013-03-18 20:43:00,
2013-03-18 16:53:00,49.0,48.0,-100.00,ENE,65,2.0,5.0,98,0.16,,,0.80,50.000000,,2013-03-18 20:53:00,
2013-03-18 17:02:00,49.0,48.0,-100.00,ENE,65,2.0,5.0,98,0.16,,,0.80,50.000000,,2013-03-18 21:02:00,
2013-03-18 17:11:00,48.0,47.0,-100.00,WNW,291,2.0,8.0,97,0.16,,,0.96,43.000000,,2013-03-18 21:11:00,
2013-03-18 17:33:00,48.0,47.0,-100.00,WNW,291,2.0,8.0,97,0.16,,,0.96,43.000000,,2013-03-18 21:33:00,
2013-03-18 17:43:00,48.0,47.0,-100.00,WNW,291,2.0,8.0,97,0.16,,,0.96,43.000000,,2013-03-18 21:43:00,
2013-03-18 17:53:00,48.0,47.0,-100.00,WNW,291,2.0,8.0,97,0.16,,,0.96,43.000000,,2013-03-18 21:53:00,
2013-03-18 18:03:00,48.0,47.0,-100.00,WNW,291,2.0,8.0,97,0.16,,,0.96,43.000000,,2013-03-18 22:03:00,
2013-03-18 18:11:00,48.0,46.0,-100.00,WNW,298,6.0,12.0,94,0.07,,,1.03,32.000000,,2013-03-18 22:11:00,
2013-03-18 18:33:00,48.0,46.0,-100.00,WNW,298,6.0,12.0,94,0.07,,,1.03,32.000000,,2013-03-18 22:33:00,
2013-03-18 18:42:00,48.0,46.0,-100.00,WNW,298,6.0,12.0,94,0.07,,,1.03,32.000000,,2013-03-18 22:42:00,
2013-03-18 18:53:00,48.0,46.0,-100.00,WNW,298,6.0,12.0,94,0.07,,,1.03,32.000000,,2013-03-18 22:53:00,
2013-03-18 19:03:00,48.0,46.0,-100.00,WNW,298,6.0,12.0,94,0.07,,,1.03,32.000000,,2013-03-18 23:03:00,
2013-03-18 19:11:00,48.0,46.0,-100.00,NW,307,6.0,17.0,93,0.00,,,1.03,18.000000,,2013-03-18 23:11:00,
2013-03-18 19:43:00,48.0,46.0,-100.00,NW,307,6.0,17.0,93,0.00,,,1.03,18.000000,,2013-03-18 23:43:00,
2013-03-18 19:53:00,48.0,46.0,-100.00,NW,307,6.0,17.0,93,0.00,,,1.03,18.000000,,2013-03-18 23:53:00,
2013-03-18 20:03:00,48.0,46.0,-100.00,NW,307,6.0,17.0,93,0.00,,,1.03,18.000000,,2013-03-19 00:03:00,
2013-03-18 21:11:00,48.0,47.0,-100.00,WNW,288,4.0,11.0,95,-99.99,,,1.03,0.000000,,2013-03-19 01:11:00,
2013-03-18 21:43:00,48.0,47.0,-100.00,WNW,288,4.0,11.0,95,-99.99,,,1.03,0.000000,,2013-03-19 01:43:00,
2013-03-18 21:53:00,48.0,47.0,-100.00,WNW,288,4.0,11.0,95,-99.99,,,1.03,0.000000,,2013-03-19 01:53:00,
2013-03-18 22:03:00,48.0,47.0,-100.00,WNW,288,4.0,11.0,95,-99.99,,,1.03,0.000000,,2013-03-19 02:03:00,
2013-03-18 22:11:00,47.0,46.0,-100.00,North,359,3.0,8.0,95,0.00,,,1.03,0.000000,,2013-03-19 02:11:00,
2013-03-18 22:43:00,47.0,46.0,-100.00,North,359,3.0,8.0,95,0.00,,,1.03,0.000000,,2013-03-19 02:43:00,
2013-03-18 22:53:00,47.0,46.0,-100.00,North,359,3.0,8.0,95,0.00,,,1.03,0.000000,,2013-03-19 02:53:00,
2013-03-18 23:02:00,47.0,46.0,-100.00,North,359,3.0,8.0,95,0.00,,,1.03,0.000000,,2013-03-19 03:02:00,
2013-03-18 23:11:00,47.0,46.0,-100.00,NNE,22,2.0,6.0,96,0.00,,,1.03,0.000000,,2013-03-19 03:11:00,
2013-03-18 23:43:00,47.0,46.0,-100.00,NNE,22,2.0,6.0,96,0.00,,,1.03,0.000000,,2013-03-19 03:43:00,
2013-03-18 23:54:00,47.0,46.0,-100.00,NNE,22,2.0,6.0,96,0.00,,,1.03,0.000000,,2013-03-19 03:54:00,